Year,Month,Day,Hour,Minute,Value (Times are PST for temperature in C)
2017,09,02,00,00,16.70
2017,09,02,00,01,16.70
2017,09,02,00,02,16.70
2017,09,02,00,03,16.60
2017,09,02,00,04,16.60
2017,09,02,00,05,16.60
2017,09,02,00,06,16.60
2017,09,02,00,07,16.60
2017,09,02,00,08,16.60
2017,09,02,00,09,16.50
2017,09,02,00,10,16.50
2017,09,02,00,11,16.50
2017,09,02,00,12,16.50
2017,09,02,00,13,16.50
2017,09,02,00,14,16.50
2017,09,02,00,15,16.50
2017,09,02,00,16,16.50
2017,09,02,00,17,16.50
2017,09,02,00,18,16.50
2017,09,02,00,19,16.50
2017,09,02,00,20,16.50
2017,09,02,00,21,16.40
2017,09,02,00,22,16.50
2017,09,02,00,23,16.40
2017,09,02,00,24,16.40
2017,09,02,00,25,16.40
2017,09,02,00,26,16.40
2017,09,02,00,27,16.40
2017,09,02,00,28,16.40
2017,09,02,00,29,16.40
2017,09,02,00,30,16.30
2017,09,02,00,31,16.30
2017,09,02,00,32,16.30
2017,09,02,00,33,16.30
2017,09,02,00,34,16.20
2017,09,02,00,35,16.20
2017,09,02,00,36,16.10
2017,09,02,00,37,16.10
2017,09,02,00,38,16.10
2017,09,02,00,39,16.00
2017,09,02,00,40,16.00
2017,09,02,00,41,16.00
2017,09,02,00,42,15.90
2017,09,02,00,43,15.90
2017,09,02,00,44,15.90
2017,09,02,00,45,15.90
2017,09,02,00,46,15.90
2017,09,02,00,47,15.80
2017,09,02,00,48,15.80
2017,09,02,00,49,15.80
2017,09,02,00,50,15.80
2017,09,02,00,51,15.80
2017,09,02,00,52,15.80
2017,09,02,00,53,15.80
2017,09,02,00,54,15.80
2017,09,02,00,55,15.80
2017,09,02,00,56,15.80
2017,09,02,00,57,15.80
2017,09,02,00,58,15.80
2017,09,02,00,59,15.80
2017,09,02,01,00,15.80
2017,09,02,01,01,15.80
2017,09,02,01,02,15.80
2017,09,02,01,03,15.90
2017,09,02,01,04,15.90
2017,09,02,01,05,15.90
2017,09,02,01,06,15.90
2017,09,02,01,07,15.90
2017,09,02,01,08,16.00
2017,09,02,01,09,16.00
2017,09,02,01,10,16.00
2017,09,02,01,11,16.10
2017,09,02,01,12,16.10
2017,09,02,01,13,16.10
2017,09,02,01,14,16.10
2017,09,02,01,15,16.10
2017,09,02,01,16,16.10
2017,09,02,01,17,16.10
2017,09,02,01,18,16.10
2017,09,02,01,19,16.00
2017,09,02,01,20,16.00
2017,09,02,01,21,16.00
2017,09,02,01,22,16.00
2017,09,02,01,23,16.00
2017,09,02,01,24,16.00
2017,09,02,01,25,16.00
2017,09,02,01,26,16.00
2017,09,02,01,27,16.00
2017,09,02,01,28,16.00
2017,09,02,01,29,16.10
2017,09,02,01,30,16.10
2017,09,02,01,31,16.10
2017,09,02,01,32,16.10
2017,09,02,01,33,16.10
2017,09,02,01,34,16.10
2017,09,02,01,35,16.20
2017,09,02,01,36,16.20
2017,09,02,01,37,16.30
2017,09,02,01,38,16.30
2017,09,02,01,39,16.40
2017,09,02,01,40,16.40
2017,09,02,01,41,16.40
2017,09,02,01,42,16.40
2017,09,02,01,43,16.40
2017,09,02,01,44,16.40
2017,09,02,01,45,16.40
2017,09,02,01,46,16.30
2017,09,02,01,47,16.30
2017,09,02,01,48,16.30
2017,09,02,01,49,16.30
2017,09,02,01,50,16.30
2017,09,02,01,51,16.30
2017,09,02,01,52,16.30
2017,09,02,01,53,16.30
2017,09,02,01,54,16.30
2017,09,02,01,55,16.30
2017,09,02,01,56,16.30
2017,09,02,01,57,16.30
2017,09,02,01,58,16.30
2017,09,02,01,59,16.30
2017,09,02,02,00,16.30
2017,09,02,02,01,16.20
2017,09,02,02,02,16.20
2017,09,02,02,03,16.20
2017,09,02,02,04,16.20
2017,09,02,02,05,16.10
2017,09,02,02,06,16.10
2017,09,02,02,07,16.10
2017,09,02,02,08,16.00
2017,09,02,02,09,16.00
2017,09,02,02,10,15.90
2017,09,02,02,11,15.90
2017,09,02,02,12,15.90
2017,09,02,02,13,15.90
2017,09,02,02,14,15.80
2017,09,02,02,15,15.80
2017,09,02,02,16,15.80
2017,09,02,02,17,15.80
2017,09,02,02,18,15.80
2017,09,02,02,19,15.80
2017,09,02,02,20,15.80
2017,09,02,02,21,15.80
2017,09,02,02,22,15.90
2017,09,02,02,23,16.00
2017,09,02,02,24,16.00
2017,09,02,02,25,16.10
2017,09,02,02,26,16.10
2017,09,02,02,27,16.20
2017,09,02,02,28,16.30
2017,09,02,02,29,16.30
2017,09,02,02,30,16.30
2017,09,02,02,31,16.40
2017,09,02,02,32,16.40
2017,09,02,02,33,16.40
2017,09,02,02,34,16.40
2017,09,02,02,35,16.40
2017,09,02,02,36,16.40
2017,09,02,02,37,16.40
2017,09,02,02,38,16.40
2017,09,02,02,39,16.40
2017,09,02,02,40,16.40
2017,09,02,02,41,16.30
2017,09,02,02,42,16.30
2017,09,02,02,43,16.30
2017,09,02,02,44,16.30
2017,09,02,02,45,16.20
2017,09,02,02,46,16.20
2017,09,02,02,47,16.10
2017,09,02,02,48,16.10
2017,09,02,02,49,16.10
2017,09,02,02,50,16.00
2017,09,02,02,51,16.00
2017,09,02,02,52,15.90
2017,09,02,02,53,15.90
2017,09,02,02,54,15.90
2017,09,02,02,55,15.80
2017,09,02,02,56,15.80
2017,09,02,02,57,15.70
2017,09,02,02,58,15.70
2017,09,02,02,59,15.70
2017,09,02,03,00,15.70
2017,09,02,03,01,15.70
2017,09,02,03,02,15.60
2017,09,02,03,03,15.60
2017,09,02,03,04,15.60
2017,09,02,03,05,15.60
2017,09,02,03,06,15.60
2017,09,02,03,07,15.60
2017,09,02,03,08,15.60
2017,09,02,03,09,15.60
2017,09,02,03,10,15.60
2017,09,02,03,11,15.60
2017,09,02,03,12,15.60
2017,09,02,03,13,15.60
2017,09,02,03,14,15.60
2017,09,02,03,15,15.60
2017,09,02,03,16,15.60
2017,09,02,03,17,15.60
2017,09,02,03,18,15.60
2017,09,02,03,19,15.60
2017,09,02,03,20,15.60
2017,09,02,03,21,15.70
2017,09,02,03,22,15.70
2017,09,02,03,23,15.70
2017,09,02,03,24,15.70
2017,09,02,03,25,15.70
2017,09,02,03,26,15.70
2017,09,02,03,27,15.70
2017,09,02,03,28,15.70
2017,09,02,03,29,15.70
2017,09,02,03,30,15.70
2017,09,02,03,31,15.70
2017,09,02,03,32,15.60
2017,09,02,03,33,15.60
2017,09,02,03,34,15.60
2017,09,02,03,35,15.50
2017,09,02,03,36,15.50
2017,09,02,03,37,15.50
2017,09,02,03,38,15.50
2017,09,02,03,39,15.40
2017,09,02,03,40,15.40
2017,09,02,03,41,15.40
2017,09,02,03,42,15.40
2017,09,02,03,43,15.40
2017,09,02,03,44,15.40
2017,09,02,03,45,15.40
2017,09,02,03,46,15.40
2017,09,02,03,47,15.40
2017,09,02,03,48,15.40
2017,09,02,03,49,15.30
2017,09,02,03,50,15.30
2017,09,02,03,51,15.30
2017,09,02,03,52,15.30
2017,09,02,03,53,15.30
2017,09,02,03,54,15.30
2017,09,02,03,55,15.30
2017,09,02,03,56,15.20
2017,09,02,03,57,15.20
2017,09,02,03,58,15.20
2017,09,02,03,59,15.20
2017,09,02,04,00,15.20
2017,09,02,04,01,15.20
2017,09,02,04,02,15.20
2017,09,02,04,03,15.20
2017,09,02,04,04,15.20
2017,09,02,04,05,15.20
2017,09,02,04,06,15.20
2017,09,02,04,07,15.20
2017,09,02,04,08,15.20
2017,09,02,04,09,15.10
2017,09,02,04,10,15.10
2017,09,02,04,11,15.10
2017,09,02,04,12,15.10
2017,09,02,04,13,15.10
2017,09,02,04,14,15.10
2017,09,02,04,15,15.00
2017,09,02,04,16,15.00
2017,09,02,04,17,15.00
2017,09,02,04,18,14.90
2017,09,02,04,19,14.90
2017,09,02,04,20,14.90
2017,09,02,04,21,14.90
2017,09,02,04,22,14.90
2017,09,02,04,23,14.90
2017,09,02,04,24,14.90
2017,09,02,04,25,14.90
2017,09,02,04,26,14.80
2017,09,02,04,27,14.80
2017,09,02,04,28,14.80
2017,09,02,04,29,14.80
2017,09,02,04,30,14.80
2017,09,02,04,31,14.80
2017,09,02,04,32,14.80
2017,09,02,04,33,14.80
2017,09,02,04,34,14.80
2017,09,02,04,35,14.80
2017,09,02,04,36,14.80
2017,09,02,04,37,14.80
2017,09,02,04,38,14.80
2017,09,02,04,39,14.80
2017,09,02,04,40,14.70
2017,09,02,04,41,14.70
2017,09,02,04,42,14.70
2017,09,02,04,43,14.70
2017,09,02,04,44,14.70
2017,09,02,04,45,14.70
2017,09,02,04,46,14.70
2017,09,02,04,47,14.70
2017,09,02,04,48,14.70
2017,09,02,04,49,14.70
2017,09,02,04,50,14.70
2017,09,02,04,51,14.70
2017,09,02,04,52,14.70
2017,09,02,04,53,14.70
2017,09,02,04,54,14.70
2017,09,02,04,55,14.70
2017,09,02,04,56,14.70
2017,09,02,04,57,14.70
2017,09,02,04,58,14.70
2017,09,02,04,59,14.70
2017,09,02,05,00,14.70
2017,09,02,05,01,14.70
2017,09,02,05,02,14.80
2017,09,02,05,03,14.80
2017,09,02,05,04,14.80
2017,09,02,05,05,14.80
2017,09,02,05,06,14.80
2017,09,02,05,07,14.80
2017,09,02,05,08,14.80
2017,09,02,05,09,14.80
2017,09,02,05,10,14.80
2017,09,02,05,11,14.80
2017,09,02,05,12,14.80
2017,09,02,05,13,14.90
2017,09,02,05,14,14.90
2017,09,02,05,15,14.90
2017,09,02,05,16,14.90
2017,09,02,05,17,14.90
2017,09,02,05,18,14.90
2017,09,02,05,19,14.90
2017,09,02,05,20,15.00
2017,09,02,05,21,15.00
2017,09,02,05,22,15.00
2017,09,02,05,23,15.00
2017,09,02,05,24,15.10
2017,09,02,05,25,15.10
2017,09,02,05,26,15.10
2017,09,02,05,27,15.10
2017,09,02,05,28,15.10
2017,09,02,05,29,15.10
2017,09,02,05,30,15.10
2017,09,02,05,31,15.10
2017,09,02,05,32,15.10
2017,09,02,05,33,15.10
2017,09,02,05,34,15.10
2017,09,02,05,35,15.10
2017,09,02,05,36,15.10
2017,09,02,05,37,15.10
2017,09,02,05,38,15.10
2017,09,02,05,39,15.10
2017,09,02,05,40,15.10
2017,09,02,05,41,15.10
2017,09,02,05,42,15.10
2017,09,02,05,43,15.10
2017,09,02,05,44,15.00
2017,09,02,05,45,15.00
2017,09,02,05,46,15.00
2017,09,02,05,47,14.90
2017,09,02,05,48,14.90
2017,09,02,05,49,14.90
2017,09,02,05,50,14.90
2017,09,02,05,51,14.90
2017,09,02,05,52,14.80
2017,09,02,05,53,14.80
2017,09,02,05,54,14.80
2017,09,02,05,55,14.80
2017,09,02,05,56,14.70
2017,09,02,05,57,14.70
2017,09,02,05,58,14.70
2017,09,02,05,59,14.80
2017,09,02,06,00,14.80
2017,09,02,06,01,14.90
2017,09,02,06,02,14.90
2017,09,02,06,03,15.00
2017,09,02,06,04,15.00
2017,09,02,06,05,15.10
2017,09,02,06,06,15.10
2017,09,02,06,07,15.20
2017,09,02,06,08,15.20
2017,09,02,06,09,15.20
2017,09,02,06,10,15.30
2017,09,02,06,11,15.30
2017,09,02,06,12,15.30
2017,09,02,06,13,15.30
2017,09,02,06,14,15.30
2017,09,02,06,15,15.40
2017,09,02,06,16,15.40
2017,09,02,06,17,15.40
2017,09,02,06,18,15.50
2017,09,02,06,19,15.50
2017,09,02,06,20,15.50
2017,09,02,06,21,15.50
2017,09,02,06,22,15.50
2017,09,02,06,23,15.50
2017,09,02,06,24,15.50
2017,09,02,06,25,15.50
2017,09,02,06,26,15.40
2017,09,02,06,27,15.40
2017,09,02,06,28,15.40
2017,09,02,06,29,15.40
2017,09,02,06,30,15.30
2017,09,02,06,31,15.30
2017,09,02,06,32,15.30
2017,09,02,06,33,15.20
2017,09,02,06,34,15.20
2017,09,02,06,35,15.10
2017,09,02,06,36,15.10
2017,09,02,06,37,15.00
2017,09,02,06,38,14.90
2017,09,02,06,39,14.90
2017,09,02,06,40,14.90
2017,09,02,06,41,14.80
2017,09,02,06,42,14.80
2017,09,02,06,43,14.80
2017,09,02,06,44,14.70
2017,09,02,06,45,14.70
2017,09,02,06,46,14.70
2017,09,02,06,47,14.60
2017,09,02,06,48,14.60
2017,09,02,06,49,14.60
2017,09,02,06,50,14.60
2017,09,02,06,51,14.50
2017,09,02,06,52,14.50
2017,09,02,06,53,14.50
2017,09,02,06,54,14.40
2017,09,02,06,55,14.40
2017,09,02,06,56,14.40
2017,09,02,06,57,14.40
2017,09,02,06,58,14.40
2017,09,02,06,59,14.40
2017,09,02,07,00,14.40
2017,09,02,07,01,14.40
2017,09,02,07,02,14.40
2017,09,02,07,03,14.40
2017,09,02,07,04,14.40
2017,09,02,07,05,14.40
2017,09,02,07,06,14.40
2017,09,02,07,07,14.50
2017,09,02,07,08,14.50
2017,09,02,07,09,14.50
2017,09,02,07,10,14.60
2017,09,02,07,11,14.60
2017,09,02,07,12,14.60
2017,09,02,07,13,14.60
2017,09,02,07,14,14.60
2017,09,02,07,15,14.70
2017,09,02,07,16,14.70
2017,09,02,07,17,14.70
2017,09,02,07,18,14.70
2017,09,02,07,19,14.70
2017,09,02,07,20,14.80
2017,09,02,07,21,14.80
2017,09,02,07,22,14.80
2017,09,02,07,23,14.90
2017,09,02,07,24,14.90
2017,09,02,07,25,15.00
2017,09,02,07,26,15.00
2017,09,02,07,27,15.00
2017,09,02,07,28,15.10
2017,09,02,07,29,15.10
2017,09,02,07,30,15.10
2017,09,02,07,31,15.10
2017,09,02,07,32,15.20
2017,09,02,07,33,15.20
2017,09,02,07,34,15.30
2017,09,02,07,35,15.30
2017,09,02,07,36,15.40
2017,09,02,07,37,15.50
2017,09,02,07,38,15.60
2017,09,02,07,39,15.60
2017,09,02,07,40,15.70
2017,09,02,07,41,15.80
2017,09,02,07,42,15.90
2017,09,02,07,43,15.90
2017,09,02,07,44,16.00
2017,09,02,07,45,16.10
2017,09,02,07,46,16.10
2017,09,02,07,47,16.20
2017,09,02,07,48,16.30
2017,09,02,07,49,16.40
2017,09,02,07,50,16.50
2017,09,02,07,51,16.60
2017,09,02,07,52,16.70
2017,09,02,07,53,16.80
2017,09,02,07,54,16.90
2017,09,02,07,55,16.90
2017,09,02,07,56,17.00
2017,09,02,07,57,17.00
2017,09,02,07,58,17.10
2017,09,02,07,59,17.10
2017,09,02,08,00,17.10
2017,09,02,08,01,17.20
2017,09,02,08,02,17.20
2017,09,02,08,03,17.20
2017,09,02,08,04,17.20
2017,09,02,08,05,17.20
2017,09,02,08,06,17.20
2017,09,02,08,07,17.30
2017,09,02,08,08,17.30
2017,09,02,08,09,17.30
2017,09,02,08,10,17.30
2017,09,02,08,11,17.30
2017,09,02,08,12,17.40
2017,09,02,08,13,17.40
2017,09,02,08,14,17.40
2017,09,02,08,15,17.50
2017,09,02,08,16,17.60
2017,09,02,08,17,17.60
2017,09,02,08,18,17.70
2017,09,02,08,19,17.70
2017,09,02,08,20,17.80
2017,09,02,08,21,17.90
2017,09,02,08,22,18.00
2017,09,02,08,23,18.10
2017,09,02,08,24,18.20
2017,09,02,08,25,18.30
2017,09,02,08,26,18.40
2017,09,02,08,27,18.40
2017,09,02,08,28,18.50
2017,09,02,08,29,18.50
2017,09,02,08,30,18.60
2017,09,02,08,31,18.60
2017,09,02,08,32,18.70
2017,09,02,08,33,18.70
2017,09,02,08,34,18.80
2017,09,02,08,35,18.80
2017,09,02,08,36,18.90
2017,09,02,08,37,18.90
2017,09,02,08,38,19.00
2017,09,02,08,39,19.10
2017,09,02,08,40,19.20
2017,09,02,08,41,19.30
2017,09,02,08,42,19.40
2017,09,02,08,43,19.40
2017,09,02,08,44,19.50
2017,09,02,08,45,19.50
2017,09,02,08,46,19.60
2017,09,02,08,47,19.60
2017,09,02,08,48,19.60
2017,09,02,08,49,19.60
2017,09,02,08,50,19.60
2017,09,02,08,51,19.60
2017,09,02,08,52,19.60
2017,09,02,08,53,19.60
2017,09,02,08,54,19.60
2017,09,02,08,55,19.60
2017,09,02,08,56,19.60
2017,09,02,08,57,19.60
2017,09,02,08,58,19.70
2017,09,02,08,59,19.70
2017,09,02,09,00,19.70
2017,09,02,09,01,19.80
2017,09,02,09,02,19.80
2017,09,02,09,03,19.80
2017,09,02,09,04,19.80
2017,09,02,09,05,19.80
2017,09,02,09,06,19.90
2017,09,02,09,07,19.90
2017,09,02,09,08,20.00
2017,09,02,09,09,20.00
2017,09,02,09,10,20.00
2017,09,02,09,11,20.10
2017,09,02,09,12,20.10
2017,09,02,09,13,20.10
2017,09,02,09,14,20.10
2017,09,02,09,15,20.20
2017,09,02,09,16,20.20
2017,09,02,09,17,20.20
2017,09,02,09,18,20.30
2017,09,02,09,19,20.30
2017,09,02,09,20,20.30
2017,09,02,09,21,20.40
2017,09,02,09,22,20.40
2017,09,02,09,23,20.40
2017,09,02,09,24,20.50
2017,09,02,09,25,20.50
2017,09,02,09,26,20.60
2017,09,02,09,27,20.60
2017,09,02,09,28,20.70
2017,09,02,09,29,20.80
2017,09,02,09,30,20.80
2017,09,02,09,31,20.90
2017,09,02,09,32,20.90
2017,09,02,09,33,21.00
2017,09,02,09,34,21.00
2017,09,02,09,35,21.00
2017,09,02,09,36,21.10
2017,09,02,09,37,21.10
2017,09,02,09,38,21.10
2017,09,02,09,39,21.10
2017,09,02,09,40,21.10
2017,09,02,09,41,21.10
2017,09,02,09,42,21.20
2017,09,02,09,43,21.20
2017,09,02,09,44,21.20
2017,09,02,09,45,21.20
2017,09,02,09,46,21.20
2017,09,02,09,47,21.20
2017,09,02,09,48,21.20
2017,09,02,09,49,21.20
2017,09,02,09,50,21.30
2017,09,02,09,51,21.30
2017,09,02,09,52,21.30
2017,09,02,09,53,21.40
2017,09,02,09,54,21.50
2017,09,02,09,55,21.50
2017,09,02,09,56,21.60
2017,09,02,09,57,21.60
2017,09,02,09,58,21.60
2017,09,02,09,59,21.70
2017,09,02,10,00,21.60
2017,09,02,10,01,21.60
2017,09,02,10,02,21.60
2017,09,02,10,03,21.60
2017,09,02,10,04,21.70
2017,09,02,10,05,21.70
2017,09,02,10,06,21.70
2017,09,02,10,07,21.70
2017,09,02,10,08,21.80
2017,09,02,10,09,21.80
2017,09,02,10,10,21.80
2017,09,02,10,11,21.80
2017,09,02,10,12,21.80
2017,09,02,10,13,21.80
2017,09,02,10,14,21.80
2017,09,02,10,15,21.80
2017,09,02,10,16,21.90
2017,09,02,10,17,21.90
2017,09,02,10,18,21.90
2017,09,02,10,19,21.90
2017,09,02,10,20,21.90
2017,09,02,10,21,21.90
2017,09,02,10,22,21.90
2017,09,02,10,23,21.90
2017,09,02,10,24,22.00
2017,09,02,10,25,22.00
2017,09,02,10,26,22.00
2017,09,02,10,27,22.00
2017,09,02,10,28,22.00
2017,09,02,10,29,22.10
2017,09,02,10,30,22.10
2017,09,02,10,31,22.10
2017,09,02,10,32,22.20
2017,09,02,10,33,22.30
2017,09,02,10,34,22.40
2017,09,02,10,35,22.40
2017,09,02,10,36,22.40
2017,09,02,10,37,22.40
2017,09,02,10,38,22.40
2017,09,02,10,39,22.40
2017,09,02,10,40,22.40
2017,09,02,10,41,22.40
2017,09,02,10,42,22.40
2017,09,02,10,43,22.40
2017,09,02,10,44,22.40
2017,09,02,10,45,22.30
2017,09,02,10,46,22.30
2017,09,02,10,47,22.30
2017,09,02,10,48,22.40
2017,09,02,10,49,22.40
2017,09,02,10,50,22.50
2017,09,02,10,51,22.60
2017,09,02,10,52,22.60
2017,09,02,10,53,22.60
2017,09,02,10,54,22.60
2017,09,02,10,55,22.60
2017,09,02,10,56,22.60
2017,09,02,10,57,22.60
2017,09,02,10,58,22.70
2017,09,02,10,59,22.60
2017,09,02,11,00,22.60
2017,09,02,11,01,22.60
2017,09,02,11,02,22.60
2017,09,02,11,03,22.60
2017,09,02,11,04,22.60
2017,09,02,11,05,22.60
2017,09,02,11,06,22.60
2017,09,02,11,07,22.60
2017,09,02,11,08,22.60
2017,09,02,11,09,22.60
2017,09,02,11,10,22.60
2017,09,02,11,11,22.60
2017,09,02,11,12,22.60
2017,09,02,11,13,22.60
2017,09,02,11,14,22.60
2017,09,02,11,15,22.60
2017,09,02,11,16,22.60
2017,09,02,11,17,22.60
2017,09,02,11,18,22.60
2017,09,02,11,19,22.60
2017,09,02,11,20,22.60
2017,09,02,11,21,22.60
2017,09,02,11,22,22.60
2017,09,02,11,23,22.60
2017,09,02,11,24,22.60
2017,09,02,11,25,22.60
2017,09,02,11,26,22.60
2017,09,02,11,27,22.60
2017,09,02,11,28,22.60
2017,09,02,11,29,22.70
2017,09,02,11,30,22.70
2017,09,02,11,31,22.70
2017,09,02,11,32,22.70
2017,09,02,11,33,22.70
2017,09,02,11,34,22.70
2017,09,02,11,35,22.70
2017,09,02,11,36,22.70
2017,09,02,11,37,22.70
2017,09,02,11,38,22.70
2017,09,02,11,39,22.70
2017,09,02,11,40,22.80
2017,09,02,11,41,22.80
2017,09,02,11,42,22.80
2017,09,02,11,43,22.80
2017,09,02,11,44,22.90
2017,09,02,11,45,22.90
2017,09,02,11,46,22.90
2017,09,02,11,47,22.90
2017,09,02,11,48,23.00
2017,09,02,11,49,23.00
2017,09,02,11,50,23.00
2017,09,02,11,51,23.00
2017,09,02,11,52,23.10
2017,09,02,11,53,23.10
2017,09,02,11,54,23.20
2017,09,02,11,55,23.30
2017,09,02,11,56,23.30
2017,09,02,11,57,23.40
2017,09,02,11,58,23.40
2017,09,02,11,59,23.50
2017,09,02,12,00,23.60
2017,09,02,12,01,23.70
2017,09,02,12,02,23.80
2017,09,02,12,03,23.90
2017,09,02,12,04,23.90
2017,09,02,12,05,24.00
2017,09,02,12,06,24.10
2017,09,02,12,07,24.20
2017,09,02,12,08,24.30
2017,09,02,12,09,24.50
2017,09,02,12,10,24.50
2017,09,02,12,11,24.60
2017,09,02,12,12,24.60
2017,09,02,12,13,24.60
2017,09,02,12,14,24.60
2017,09,02,12,15,24.70
2017,09,02,12,16,24.70
2017,09,02,12,17,24.70
2017,09,02,12,18,24.80
2017,09,02,12,19,24.80
2017,09,02,12,20,24.80
2017,09,02,12,21,24.80
2017,09,02,12,22,24.90
2017,09,02,12,23,24.90
2017,09,02,12,24,25.00
2017,09,02,12,25,25.00
2017,09,02,12,26,25.10
2017,09,02,12,27,25.00
2017,09,02,12,28,25.00
2017,09,02,12,29,25.00
2017,09,02,12,30,25.00
2017,09,02,12,31,25.00
2017,09,02,12,32,25.00
2017,09,02,12,33,25.10
2017,09,02,12,34,25.10
2017,09,02,12,35,25.10
2017,09,02,12,36,25.20
2017,09,02,12,37,25.10
2017,09,02,12,38,25.10
2017,09,02,12,39,25.00
2017,09,02,12,40,25.00
2017,09,02,12,41,24.90
2017,09,02,12,42,24.90
2017,09,02,12,43,24.90
2017,09,02,12,44,24.90
2017,09,02,12,45,24.90
2017,09,02,12,46,24.90
2017,09,02,12,47,24.90
2017,09,02,12,48,25.00
2017,09,02,12,49,25.10
2017,09,02,12,50,25.00
2017,09,02,12,51,25.00
2017,09,02,12,52,24.90
2017,09,02,12,53,24.90
2017,09,02,12,54,25.00
2017,09,02,12,55,25.10
2017,09,02,12,56,25.20
2017,09,02,12,57,25.30
2017,09,02,12,58,25.30
2017,09,02,12,59,25.30
2017,09,02,13,00,25.30
2017,09,02,13,01,25.30
2017,09,02,13,02,25.30
2017,09,02,13,03,25.30
2017,09,02,13,04,25.30
2017,09,02,13,05,25.30
2017,09,02,13,06,25.30
2017,09,02,13,07,25.30
2017,09,02,13,08,25.30
2017,09,02,13,09,25.30
2017,09,02,13,10,25.30
2017,09,02,13,11,25.30
2017,09,02,13,12,25.30
2017,09,02,13,13,25.40
2017,09,02,13,14,25.40
2017,09,02,13,15,25.40
2017,09,02,13,16,25.40
2017,09,02,13,17,25.40
2017,09,02,13,18,25.40
2017,09,02,13,19,25.30
2017,09,02,13,20,25.30
2017,09,02,13,21,25.30
2017,09,02,13,22,25.30
2017,09,02,13,23,25.40
2017,09,02,13,24,25.40
2017,09,02,13,25,25.40
2017,09,02,13,26,25.40
2017,09,02,13,27,25.40
2017,09,02,13,28,25.30
2017,09,02,13,29,25.30
2017,09,02,13,30,25.20
2017,09,02,13,31,25.20
2017,09,02,13,32,25.20
2017,09,02,13,33,25.30
2017,09,02,13,34,25.30
2017,09,02,13,35,25.30
2017,09,02,13,36,25.30
2017,09,02,13,37,25.30
2017,09,02,13,38,25.30
2017,09,02,13,39,25.30
2017,09,02,13,40,25.30
2017,09,02,13,41,25.30
2017,09,02,13,42,25.40
2017,09,02,13,43,25.40
2017,09,02,13,44,25.40
2017,09,02,13,45,25.40
2017,09,02,13,46,25.40
2017,09,02,13,47,25.30
2017,09,02,13,48,25.30
2017,09,02,13,49,25.20
2017,09,02,13,50,25.10
2017,09,02,13,51,25.10
2017,09,02,13,52,25.10
2017,09,02,13,53,25.00
2017,09,02,13,54,25.00
2017,09,02,13,55,25.00
2017,09,02,13,56,25.10
2017,09,02,13,57,25.10
2017,09,02,13,58,25.10
2017,09,02,13,59,25.10
2017,09,02,14,00,25.00
2017,09,02,14,01,25.00
2017,09,02,14,02,24.90
2017,09,02,14,03,24.90
2017,09,02,14,04,25.00
2017,09,02,14,05,25.00
2017,09,02,14,06,25.10
2017,09,02,14,07,25.10
2017,09,02,14,08,25.10
2017,09,02,14,09,25.10
2017,09,02,14,10,25.20
2017,09,02,14,11,25.20
2017,09,02,14,12,25.30
2017,09,02,14,13,25.30
2017,09,02,14,14,25.30
2017,09,02,14,15,25.30
2017,09,02,14,16,25.30
2017,09,02,14,17,25.30
2017,09,02,14,18,25.30
2017,09,02,14,19,25.30
2017,09,02,14,20,25.40
2017,09,02,14,21,25.40
2017,09,02,14,22,25.30
2017,09,02,14,23,25.30
2017,09,02,14,24,25.20
2017,09,02,14,25,25.20
2017,09,02,14,26,25.20
2017,09,02,14,27,25.20
2017,09,02,14,28,25.20
2017,09,02,14,29,25.20
2017,09,02,14,30,25.20
2017,09,02,14,31,25.20
2017,09,02,14,32,25.20
2017,09,02,14,33,25.30
2017,09,02,14,34,25.30
2017,09,02,14,35,25.30
2017,09,02,14,36,25.30
2017,09,02,14,37,25.40
2017,09,02,14,38,25.40
2017,09,02,14,39,25.40
2017,09,02,14,40,25.40
2017,09,02,14,41,25.40
2017,09,02,14,42,25.50
2017,09,02,14,43,25.60
2017,09,02,14,44,25.50
2017,09,02,14,45,25.50
2017,09,02,14,46,25.40
2017,09,02,14,47,25.30
2017,09,02,14,48,25.30
2017,09,02,14,49,25.20
2017,09,02,14,50,25.20
2017,09,02,14,51,25.20
2017,09,02,14,52,25.20
2017,09,02,14,53,25.20
2017,09,02,14,54,25.20
2017,09,02,14,55,25.20
2017,09,02,14,56,25.30
2017,09,02,14,57,25.30
2017,09,02,14,58,25.30
2017,09,02,14,59,25.20
2017,09,02,15,00,25.20
2017,09,02,15,01,25.20
2017,09,02,15,02,25.20
2017,09,02,15,03,25.20
2017,09,02,15,04,25.20
2017,09,02,15,05,25.30
2017,09,02,15,06,25.30
2017,09,02,15,07,25.30
2017,09,02,15,08,25.20
2017,09,02,15,09,25.20
2017,09,02,15,10,25.20
2017,09,02,15,11,25.10
2017,09,02,15,12,25.10
2017,09,02,15,13,25.10
2017,09,02,15,14,25.10
2017,09,02,15,15,25.00
2017,09,02,15,16,25.00
2017,09,02,15,17,25.10
2017,09,02,15,18,25.10
2017,09,02,15,19,25.10
2017,09,02,15,20,25.10
2017,09,02,15,21,25.10
2017,09,02,15,22,25.00
2017,09,02,15,23,24.90
2017,09,02,15,24,24.80
2017,09,02,15,25,24.70
2017,09,02,15,26,24.70
2017,09,02,15,27,24.60
2017,09,02,15,28,24.50
2017,09,02,15,29,24.40
2017,09,02,15,30,24.50
2017,09,02,15,31,24.50
2017,09,02,15,32,24.60
2017,09,02,15,33,24.60
2017,09,02,15,34,24.60
2017,09,02,15,35,24.60
2017,09,02,15,36,24.60
2017,09,02,15,37,24.60
2017,09,02,15,38,24.70
2017,09,02,15,39,24.80
2017,09,02,15,40,24.90
2017,09,02,15,41,25.00
2017,09,02,15,42,25.10
2017,09,02,15,43,25.10
2017,09,02,15,44,25.20
2017,09,02,15,45,25.30
2017,09,02,15,46,25.30
2017,09,02,15,47,25.40
2017,09,02,15,48,25.50
2017,09,02,15,49,25.70
2017,09,02,15,50,25.70
2017,09,02,15,51,25.80
2017,09,02,15,52,25.90
2017,09,02,15,53,25.90
2017,09,02,15,54,25.90
2017,09,02,15,55,26.00
2017,09,02,15,56,26.00
2017,09,02,15,57,26.00
2017,09,02,15,58,25.90
2017,09,02,15,59,25.90
2017,09,02,16,00,26.00
2017,09,02,16,01,26.10
2017,09,02,16,02,26.10
2017,09,02,16,03,26.10
2017,09,02,16,04,26.20
2017,09,02,16,05,26.30
2017,09,02,16,06,26.40
2017,09,02,16,07,26.40
2017,09,02,16,08,26.40
2017,09,02,16,09,26.40
2017,09,02,16,10,26.50
2017,09,02,16,11,26.50
2017,09,02,16,12,26.50
2017,09,02,16,13,26.50
2017,09,02,16,14,26.60
2017,09,02,16,15,26.70
2017,09,02,16,16,26.80
2017,09,02,16,17,26.80
2017,09,02,16,18,26.90
2017,09,02,16,19,27.00
2017,09,02,16,20,27.10
2017,09,02,16,21,27.10
2017,09,02,16,22,27.10
2017,09,02,16,23,27.10
2017,09,02,16,24,27.10
2017,09,02,16,25,27.20
2017,09,02,16,26,27.20
2017,09,02,16,27,27.20
2017,09,02,16,28,27.20
2017,09,02,16,29,27.20
2017,09,02,16,30,27.20
2017,09,02,16,31,27.20
2017,09,02,16,32,27.20
2017,09,02,16,33,27.20
2017,09,02,16,34,27.20
2017,09,02,16,35,27.10
2017,09,02,16,36,27.10
2017,09,02,16,37,27.10
2017,09,02,16,38,27.00
2017,09,02,16,39,27.00
2017,09,02,16,40,27.00
2017,09,02,16,41,27.00
2017,09,02,16,42,27.10
2017,09,02,16,43,27.10
2017,09,02,16,44,27.10
2017,09,02,16,45,27.10
2017,09,02,16,46,27.10
2017,09,02,16,47,27.20
2017,09,02,16,48,27.30
2017,09,02,16,49,27.30
2017,09,02,16,50,27.30
2017,09,02,16,51,27.30
2017,09,02,16,52,27.20
2017,09,02,16,53,27.20
2017,09,02,16,54,27.10
2017,09,02,16,55,27.00
2017,09,02,16,56,26.90
2017,09,02,16,57,26.70
2017,09,02,16,58,26.60
2017,09,02,16,59,26.50
2017,09,02,17,00,26.40
2017,09,02,17,01,26.40
2017,09,02,17,02,26.30
2017,09,02,17,03,26.30
2017,09,02,17,04,26.20
2017,09,02,17,05,26.20
2017,09,02,17,06,26.20
2017,09,02,17,07,26.20
2017,09,02,17,08,26.20
2017,09,02,17,09,26.20
2017,09,02,17,10,26.20
2017,09,02,17,11,26.20
2017,09,02,17,12,26.20
2017,09,02,17,13,26.20
2017,09,02,17,14,26.20
2017,09,02,17,15,26.20
2017,09,02,17,16,26.20
2017,09,02,17,17,26.20
2017,09,02,17,18,26.20
2017,09,02,17,19,26.20